Flag for U.S.A. Weather past 2 weeks in New Haven, Connecticut, U.S.A.

Now
13 °F

Clear.


Feels Like: -7 °F
Forecast: 10 / 22 °F
Wind: 25 mph from Northwest

Location: Tweed-New Haven Airport

Current Time: Jan 31, 2015 at 3:46:04 AM

Latest Report: Jan 31, 2015 at 2:53 AM


Visibility: 9 mi

Pressure: 29.93 "Hg

Humidity: 49%

Dew point: -3 °F

Location of New HavenLocation

Historic Weather in New Haven — Graph

°F

New Haven temperature yesterday

Maximum temperature yesterday: 35 °F (at 3:53 PM)
Minimum temperature yesterday: 16 °F (at 11:53 PM)
Average temperature yesterday: 30 °F

Past Weeks' High & Low Weather Summary

 TemperatureHumidityPressure
High47 °F (Jan 18, 4:00 PM)100% (Jan 18, 10:53 AM)30.40 "Hg (Jan 18, 10:53 AM)
Low13 °F (Jan 29, 6:53 AM)25% (Jan 17, 12:53 PM)29.19 "Hg (Jan 24, 3:53 PM)
Average29 °F63%29.95 "Hg
* Reported Jan 16 2:53 AM — Jan 31 2:53 AM, New Haven, Weather by CustomWeather, © 2014

Note: Actual official high and low records may vary slightly from our data, if they occured in-between our weather recording intervals... More about our weather records

Advertising

New Haven weather history for previous 24 hours

 ConditionsComfort  
Time TempWeatherWind HumidityBarometerVisibility
2:53 AM
Jan 31
13 °FClear.25 mph49%29.93 "Hg9 mi
1:53 AM14 °FClear.17 mph49%29.92 "Hg10 mi
12:53 AM15 °FClear.20 mph53%29.91 "Hg10 mi
11:53 PM
Jan 30
16 °FClear.18 mph53%29.93 "Hg10 mi
10:53 PM18 °FClear.15 mph54%29.93 "Hg10 mi
9:53 PM20 °FClear.17 mph55%29.93 "Hg10 mi
8:53 PM23 °FPassing clouds.15 mph53%29.91 "Hg10 mi
7:53 PM26 °FClear.14 mph52%29.88 "Hg10 mi
6:53 PM29 °FPassing clouds.17 mph51%29.86 "Hg10 mi
5:53 PM31 °FPassing clouds.8 mph52%29.84 "Hg10 mi
4:53 PM32 °FScattered clouds.18 mph54%29.81 "Hg10 mi
3:53 PM35 °FPartly sunny.15 mph59%29.79 "Hg10 mi
2:53 PM34 °FOvercast.15 mph61%29.78 "Hg10 mi
2:00 PM34 °FOvercast.14 mph67%29.78 "Hg10 mi
1:00 PM34 °FOvercast.10 mph67%29.78 "Hg10 mi
11:53 AM34 °FOvercast.6 mph79%29.79 "Hg10 mi
10:53 AM33 °FMostly cloudy.8 mph88%29.81 "Hg8 mi
10:00 AM32 °FLight snow. Ice fog.9 mph92%29.83 "Hg1 mi
9:00 AM32 °FLight snow. Ice fog.5 mph96%29.83 "Hg4 mi
7:53 AM32 °FLight snow. Ice fog.No wind92%29.83 "Hg2 mi
6:53 AM32 °FLight snow. Ice fog.No wind92%29.83 "Hg2 mi
5:53 AM33 °FFog.No wind92%29.85 "Hg5 mi
4:53 AM32 °FOvercast.No wind96%29.86 "Hg8 mi
4:00 AM33 °FLight snow. Fog.No wind92%29.88 "Hg2 mi
3:01 AM33 °FLight snow. Fog.No wind92%29.91 "Hg2 mi
Weather by CustomWeather, © 2014

See weather overviewHow to use our weather pages